DW2487 Weather Reports


Display with metric or nautical units.
time (UTC)temp
F
wind
direction
speed
MPH
gust
MPH
rain 1hr
in
rain 24hr
in
rain mn
in
humidity
%
barometer
mb
20260906183034 79 105 1.0 0.0 0.00 0.00 0.00 75 1015.5
20260906181530 78 103 1.0 0.0 0.00 0.00 0.00 74 1015.4
20260906180011 78 76 2.0 0.0 0.00 0.00 0.00 74 1015.4
20260906174511 78 96 3.0 0.0 0.00 0.00 0.00 76 1015.5
20260906173051 78 109 2.0 0.0 0.00 0.00 0.00 75 1015.6
20260906171550 77 103 1.0 0.0 0.00 0.00 0.00 76 1015.6
20260906170030 77 77 2.0 0.0 0.00 0.00 0.00 77 1015.7
20260906164528 76 71 3.0 0.0 0.00 0.00 0.00 78 1015.8
20260906163009 76 123 3.0 0.0 0.00 0.00 0.00 79 1015.9
20260906161508 76 87 0.0 0.0 0.00 0.00 0.00 80 1016.0
20260906160050 76 86 1.0 0.0 0.00 0.00 0.00 80 1016.3
20260906154557 76 108 1.0 0.0 0.00 0.00 0.00 82 1016.4
20260906153026 75 98 2.0 0.0 0.00 0.00 0.00 85 1016.2
20260906151526 73 92 0.0 0.0 0.00 0.00 0.00 88 1016.4
20260906150009 72 82 1.0 0.0 0.00 0.00 0.00 89 1016.3
20260906144514 71 102 1.0 0.0 0.00 0.00 0.00 92 1016.2
20260906143053 70 98 0.0 0.0 0.00 0.00 0.00 93 1016.0
20260906141558 69 95 0.0 0.0 0.00 0.00 0.00 94 1016.1
20260906140036 69 103 0.0 0.0 0.00 0.00 0.00 96 1016.2
20260906134531 68 100 0.0 0.0 0.00 0.00 0.00 98 1016.2
20260906133022 67 101 0.0 0.0 0.00 0.00 0.00 98 1016.3
20260906131512 66 102 0.0 0.0 0.00 0.00 0.00 98 1016.3
20260906130058 65 102 0.0 0.0 0.00 0.00 0.00 98 1016.4
20260906124552 64 102 0.0 0.0 0.00 0.00 0.00 98 1016.2
20260906123041 62 102 0.0 0.0 0.00 0.00 0.00 98 1016.0
20260906121529 0 0.0 0.0 0.00 0.00 0.00 1016.0
20260906120007 0 0.0 0.0 0.00 0.00 0.00 1015.9
20260906114507 0 0.0 0.0 0.00 0.00 0.00 1016.0
20260906113042 62 102 0.0 0.0 0.00 0.00 0.00 96 1016.0
20260906111547 62 102 0.0 0.0 0.00 0.00 0.00 97 1015.7
20260906110021 62 102 0.0 0.0 0.00 0.00 0.00 97 1015.6
20260906104534 63 102 0.0 0.0 0.00 0.00 0.00 97 1015.5
20260906103102 63 102 0.0 0.0 0.00 0.00 0.00 96 1015.1
20260906101559 63 102 0.0 0.0 0.00 0.00 0.00 97 1015.1
20260906100055 63 102 0.0 0.0 0.00 0.00 0.00 97 1014.9
20260906094549 63 102 0.0 0.0 0.00 0.00 0.00 97 1014.6
20260906093032 63 102 0.0 0.0 0.00 0.00 0.00 96 1014.7
20260906091529 63 102 0.0 0.0 0.00 0.00 0.00 96 1014.7
20260906090003 64 102 0.0 0.0 0.00 0.00 0.00 96 1014.7
20260906084503 64 102 0.0 0.0 0.00 0.00 0.00 96 1014.8
20260906083045 63 102 0.0 0.0 0.00 0.00 0.00 96 1014.8
20260906081544 63 102 0.0 0.0 0.00 0.00 0.00 96 1014.9
20260906080027 63 102 0.0 0.0 0.00 0.00 0.00 95 1014.5
20260906074525 64 102 0.0 0.0 0.00 0.00 0.00 95 1014.6
20260906073007 64 102 0.0 0.0 0.00 0.00 0.00 95 1014.8
20260906071506 64 102 0.0 0.0 0.00 0.00 0.00 95 1014.8
20260906070054 65 102 0.0 0.0 0.00 0.00 0.00 95 1015.0
20260906064553 65 102 0.0 0.0 0.00 0.00 0.00 95 1015.1
20260906063051 65 102 0.0 0.0 0.00 0.00 0.00 95 1015.1
20260906061553 65 102 0.0 0.0 0.00 0.00 0.00 95 1015.0
20260906060050 65 102 0.0 0.0 0.00 0.00 0.00 95 1015.0
20260906054603 65 102 0.0 0.0 0.00 0.00 0.00 94 1015.0
20260906053047 66 102 0.0 0.0 0.00 0.00 0.00 94 1014.9
20260906051545 66 102 0.0 0.0 0.00 0.00 0.00 93 1015.0
20260906050031 67 102 0.0 0.0 0.00 0.00 0.00 93 1015.0
20260906044525 67 102 0.0 0.0 0.00 0.00 0.00 93 1015.1
20260906043007 67 102 0.0 0.0 0.00 0.00 0.00 93 1015.1
20260906041506 67 102 0.0 0.0 0.00 0.00 0.00 92 1015.0
20260906040049 68 102 0.0 0.0 0.00 0.00 0.00 92 1015.0
20260906034550 68 102 0.0 0.0 0.00 0.00 0.00 92 1015.0
20260906033027 68 102 0.0 0.0 0.00 0.00 0.00 92 1015.1
20260906031557 68 102 0.0 0.0 0.00 0.00 0.00 92 1015.1
20260906030011 68 102 0.0 0.0 0.00 0.00 0.00 92 1015.1
20260906024532 68 102 0.0 0.0 0.00 0.00 0.00 92 1015.2
20260906023107 68 102 0.0 0.0 0.00 0.00 0.00 91 1015.2
20260906021548 69 102 0.0 0.0 0.00 0.00 0.00 91 1015.1
20260906020046 69 102 0.0 0.0 0.00 0.00 0.00 89 1014.9
20260906014525 69 102 0.0 0.0 0.00 0.00 0.00 88 1014.4
20260906013022 70 102 0.0 0.0 0.00 0.00 0.00 87 1013.9
20260906011502 71 102 0.0 0.0 0.00 0.00 0.00 85 1013.5
20260906010058 72 102 0.0 0.0 0.00 0.00 0.00 84 1013.1
20260906004535 74 102 0.0 0.0 0.00 0.00 0.00 82 1012.7
20260906003035 75 102 0.0 0.0 0.00 0.00 0.00 79 1012.3
20260906001516 76 102 0.0 0.0 0.00 0.00 0.00 77 1012.1
20260906000019 77 102 0.0 0.0 0.00 0.00 0.00 75 1012.3
20260905234605 78 102 0.0 0.0 0.00 0.00 0.00 74 1012.3
20260905233059 78 99 0.0 0.0 0.00 0.00 0.00 74 1012.3
20260905231541 78 103 1.0 0.0 0.00 0.00 0.00 74 1012.4
20260905230040 78 77 0.0 0.0 0.00 0.00 0.00 75 1012.6
20260905224523 79 106 0.0 0.0 0.00 0.00 0.00 74 1012.6
20260905223022 78 83 1.0 0.0 0.00 0.00 0.00 74 1012.7
20260905221506 78 89 1.0 0.0 0.00 0.00 0.00 75 1012.7
20260905220004 79 93 0.0 0.0 0.00 0.00 0.00 73 1012.9
20260905214551 79 97 1.0 0.0 0.00 0.00 0.00 73 1013.2
20260905213049 79 92 1.0 0.0 0.00 0.00 0.00 73 1013.3
20260905211552 79 80 0.0 0.0 0.00 0.00 0.00 73 1013.3
20260905210025 79 82 1.0 0.0 0.00 0.00 0.00 73 1013.4
20260905204507 78 94 2.0 0.0 0.00 0.00 0.00 75 1013.9
20260905203005 78 86 0.0 0.0 0.00 0.00 0.00 76 1014.2
20260905201552 78 86 0.0 0.0 0.00 0.00 0.00 75 1014.3
20260905200052 78 87 0.0 0.0 0.00 0.00 0.00 77 1014.5
20260905194526 77 92 1.0 0.0 0.00 0.00 0.00 79 1014.7
20260905193022 76 90 1.0 0.0 0.00 0.00 0.00 80 1014.7
20260905191506 75 86 0.0 0.0 0.00 0.00 0.00 81 1014.8
20260905190003 75 87 1.0 0.0 0.00 0.00 0.00 81 1015.0
20260905184543 74 88 0.0 0.0 0.00 0.00 0.00 84 1014.9